Regional Weather Roundup
Issued by NWS Sioux Falls, SD

Home | Current Version | Previous Version | Graphics & Text | Print | Product List | Glossary Off
Versions: 1 2 3 4 5 6 7 8 9 10 11 12 13 14 15 16 17 18 19 20 21 22 23 24 25 26 27 28 29 30 31 32 33 34 35 36 37 38 39 40 41 42 43 44 45 46 47 48 49 50

948
ASUS43 KFSD 240702
RWRFSD

WEATHER ROUNDUP FOR SE SOUTH DAKOTA/SW MINNESOTA/NW IOWA
NATIONAL WEATHER SERVICE SIOUX FALLS SD
200 AM CDT WED AUG 24 2016

NOTE: "FAIR" INDICATES FEW OR NO CLOUDS BELOW 12,000 FEET WITH NO
SIGNIFICANT WEATHER AND OR OBSTRUCTIONS TO VISIBILITY.


SDZ038>040-050-052>070-240800-
SOUTHEAST SOUTH DAKOTA

CITY           SKY/WX    TMP DP  RH WIND       PRES   REMARKS
BROOKINGS      CLOUDY    69  67  93 NW12      29.85R
CHAMBERLAIN    CLEAR     64  52  66 N5        29.95R
HURON          CLEAR     56  51  84 NW5       29.90R
MADISON        FAIR      66  66 100 NW17G24   29.87R
MITCHELL       CLEAR     61  54  77 NW9       29.89S
SIOUX FALLS    CLOUDY    72  71  97 NW7       29.83S
WINNER         FAIR      59  46  62 SW6       29.99R
YANKTON        CLEAR     70  64  83 NW13      29.84R
$$

MNZ071-072-080-081-089-090-097-098-240800-
SOUTHWEST MINNESOTA

CITY           SKY/WX    TMP DP  RH WIND       PRES   REMARKS
FAIRMONT         N/A    N/A N/A N/A MISG        N/A
JACKSON        CLOUDY    70  68  94 SW3       29.83S FOG
LUVERNE        CLOUDY    70  68  94 NW3       29.83S FOG
MARSHALL       CLOUDY    67  66  97 N3        29.82S
MONTEVIDEO     CLOUDY    66  66 100 CALM      29.83S
REDWOOD FALLS  LGT RAIN  67  65  93 SE5       29.80F
TRACY          CLOUDY    68  67  98 CALM      29.82S
WINDOM         CLOUDY    68  66  94 CALM      29.82S FOG
WORTHINGTON    CLOUDY    70  68  93 SW7       29.82F
$$

IAZ001>003-012>014-020>022-031-032-NEZ013-014-SDZ071-240800-
NORTHWEST IOWA

CITY           SKY/WX    TMP DP  RH WIND       PRES   REMARKS
CHEROKEE       CLOUDY    68  65  91 S5        29.84R
DENISON        CLOUDY    68  64  88 S7        29.87R
ESTHERVILLE    CLOUDY    69  69 100 S3        29.82F FOG
LE MARS        CLOUDY    70  64  83 S7        29.83R
ORANGE CITY    MOCLDY    66  64  94 S3        29.83R
SHELDON        CLOUDY    66  66 100 CALM      29.81S
SIOUX CITY     CLOUDY    70  64  81 S9        29.84R
SPENCER        CLOUDY    68  65  90 SW3       29.83S
STORM LAKE     CLOUDY    66  64  94 SE6       29.87R
$$

ABBREVIATIONS USED IN REMARKS
   TC - TEMPERATURE IN CELSIUS
  WCI - WIND CHILL INDEX
   HX - HEAT INDEX
  VSB - VISIBILITY





USA.gov is the U.S. government's official web portal to all federal, state and local government web resources and services.